OBJECT E, 59777

Orbit data source: Space-Track

You're viewing an Uncataloged Satellite

Recently launched and/or uncataloged satellites may have evolving metadata. Metadata may include but not limited to: Owner, Maufacturer, Bus, Motor, and Mission.

OBJECT E, 59777 is a satellite owned by Sitronics (CIS) in SSO that was launched on Thu, 16 May 2024 UTC via a SOYUZ-2-1B launch vehicle from the Plesetsk Missile And Space Complex (PKMTR). Unknown objects in Earth's orbit typically refer to objects detected orbiting the Earth but have not yet been identified or cataloged. These objects could be anything from previously untracked satellites, spent rocket stages, debris from satellite collisions, or even natural meteoroids temporarily captured by Earth's gravity.

Loading next visibility...
Identifier
59777, 2024-092E
Orbit
SSO
Last TLE update
10 hours ago
Origin
Manufacturer
Sputniks
Mission
Operational spacecraft
Bus & Motor
CUBESAT 3U?, Unknown motor
Mass
3 kg wet, 3 kg dry
Launch date (UTC)
2024-05-16 (1 year ago)
Launch vehicle
SOYUZ-2-1B
Launch site
Plesetsk Missile And Space Complex (PKMTR)
Object type
Unknown
Shape & HBR
Unknown
Radar Cross Section
Small (<0.1 m²)

Expand to show TLE details & history

TLE from 10 hours ago
0 OBJECT E
1 59777U 24092E   25182.83309458  .00008509  00000-0  36654-3 0  9999
2 59777  97.6238 301.3443 0008593 308.3390  51.7073 15.22812652 62196
Epoch: 2025-07-01T19:59Z
TLE epoch observation values (Epoch: 2025-07-01T19:59:39.371Z)
Latitude
-0.00004°
Longitude
81.30738°
Altitude
496.79 km
Speed
7.618 km/s
True Right ascension
20h 05m 22s
True Declination
0° 00' 00"
Sunlit
Object was in full shadow at epoch
Visualization orbit readout
Latitude
24.8963°
Longitude
-94.72196°
Altitude
505.714 km
Speed
7.611 km/s
Apparent Right ascension
07h 15m 01s
Apparent Declination
-6° 25' 49"
Sunlit
Object is in daylight
Visualization observer readout
Local Sidereal Time
17:49:47
Azimuth
324.597° NNW
Elevation
-51.435°
Doppler factor
1
Orbital elements
Apogee altitude
500.239 km
Perigee altitude
488.428 km
Semi-major axis
6,872.47 km
Eccentricity
0.00086
Inclination
97.6238°
RAAN
301.3443°
Arg. of periapsis
308.339°
True anomaly
Unknown
Mean anomaly
51.7073°
Eccentric anomaly
Unknown
Mean motion
3.80955 °/min
Orbital period
94.5 mins
BSTAR
0.00036654
Loading maneuver chart data...
Loading SW <> Apogee altitude chart data...
Loading historical data...
Loading historical data...
Loading historical data...
Loading historical data...
Loading historical data...
Loading historical data...
Loading historical data...

OBJECT E Visibility forecast

Observer location: undefined°, undefined°

Span
Click to sort rows by Start time (UTC) header in descending order
Start Az.
Max El. time (UTC)
Max El. Az.
Max El.
End time (UTC)
End Az.
4 mins2025-07-02 07:11:06.028Z113.341° SE2025-07-02 07:13:06.028Z73.29° E20.56°2025-07-02 07:15:06.028Z30.082° NE
4 mins2025-07-02 08:45:06.028Z227.915° WSW2025-07-02 08:47:06.028Z271.478° WNW19.665°2025-07-02 08:49:06.028Z309.444° NW
5 mins2025-07-02 20:14:06.028Z49.556° ENE2025-07-02 20:16:06.028Z100.841° ESE26.305°2025-07-02 20:19:06.028Z158.718° S
|